| time (UTC) | temp F | wind direction | speed MPH | gust MPH | rain 1hr in | rain 24hr in | rain mn in | humidity % | barometer mb |
| 20260505014156 | 87 | 35 | 0.0 | 1.0 | 0.00 | 0.00 | 0.00 | 62 | 1007.7 |
| 20260505013656 | 86 | 16 | 1.0 | 1.0 | 0.00 | 0.00 | 0.00 | 63 | 1007.6 |
| 20260505013156 | 86 | 116 | 1.0 | 1.0 | 0.00 | 0.00 | 0.00 | 63 | 1007.6 |
| 20260505012656 | 86 | 231 | 0.0 | 1.0 | 0.00 | 0.00 | 0.00 | 64 | 1007.5 |
| 20260505012156 | 85 | 0 | 0.0 | 0.0 | 0.00 | 0.00 | 0.00 | 64 | 1007.5 |
| 20260505011656 | 85 | 127 | 0.0 | 0.0 | 0.00 | 0.00 | 0.00 | 64 | 1007.5 |
| 20260505011200 | 85 | 121 | 0.0 | 1.0 | 0.00 | 0.00 | 0.00 | 64 | 1007.4 |
| 20260505010657 | 85 | 0 | 0.0 | 0.0 | 0.00 | 0.00 | 0.00 | 65 | 1007.3 |
| 20260505010156 | 85 | 83 | 0.0 | 1.0 | 0.00 | 0.00 | 0.00 | 66 | 1007.2 |
| 20260505005657 | 85 | 316 | 1.0 | 1.0 | 0.00 | 0.00 | 0.00 | 66 | 1007.1 |
| 20260505005156 | 85 | 211 | 0.0 | 0.0 | 0.00 | 0.00 | 0.00 | 66 | 1007.2 |
| 20260505004656 | 85 | 145 | 1.0 | 1.0 | 0.00 | 0.00 | 0.00 | 66 | 1007.2 |
| 20260505004156 | 85 | 170 | 0.0 | 0.0 | 0.00 | 0.00 | 0.00 | 66 | 1007.1 |
| 20260505003656 | 85 | 160 | 1.0 | 1.0 | 0.00 | 0.00 | 0.00 | 66 | 1007.1 |
| 20260505003158 | 85 | 82 | 1.0 | 1.0 | 0.00 | 0.00 | 0.00 | 66 | 1007.1 |
| 20260505002656 | 85 | 283 | 1.0 | 1.0 | 0.00 | 0.00 | 0.00 | 66 | 1007.1 |
| 20260505002157 | 85 | 287 | 0.0 | 0.0 | 0.00 | 0.00 | 0.00 | 66 | 1007.0 |
| 20260505001658 | 85 | 69 | 0.0 | 1.0 | 0.00 | 0.00 | 0.00 | 66 | 1007.1 |
| 20260505001157 | 85 | 48 | 0.0 | 1.0 | 0.00 | 0.00 | 0.00 | 66 | 1007.1 |
| 20260505000656 | 85 | 132 | 1.0 | 2.0 | 0.00 | 0.00 | 0.00 | 67 | 1007.0 |
| 20260505000156 | 85 | 246 | 1.0 | 1.0 | 0.00 | 0.00 | 0.00 | 68 | 1007.1 |
| 20260504235657 | 85 | 0 | 0.0 | 0.0 | 0.00 | 0.00 | 0.00 | 68 | 1007.1 |
| 20260504235156 | 85 | 301 | 0.0 | 2.0 | 0.00 | 0.00 | 0.00 | 68 | 1007.1 |
| 20260504234656 | 85 | 64 | 0.0 | 2.0 | 0.00 | 0.00 | 0.00 | 68 | 1007.1 |
| 20260504234157 | 85 | 130 | 1.0 | 2.0 | 0.00 | 0.00 | 0.00 | 68 | 1007.0 |
| 20260504233656 | 85 | 54 | 1.0 | 1.0 | 0.00 | 0.00 | 0.00 | 69 | 1007.0 |
| 20260504233158 | 85 | 19 | 1.0 | 2.0 | 0.00 | 0.00 | 0.00 | 69 | 1007.1 |
| 20260504232657 | 85 | 193 | 1.0 | 1.0 | 0.00 | 0.00 | 0.00 | 69 | 1007.1 |
| 20260504232157 | 85 | 166 | 1.0 | 2.0 | 0.00 | 0.00 | 0.00 | 69 | 1007.1 |
| 20260504231702 | 85 | 21 | 1.0 | 2.0 | 0.00 | 0.00 | 0.00 | 68 | 1007.1 |
| 20260504231156 | 85 | 39 | 1.0 | 2.0 | 0.00 | 0.00 | 0.00 | 68 | 1007.1 |
| 20260504230656 | 85 | 352 | 2.0 | 3.0 | 0.00 | 0.00 | 0.00 | 69 | 1007.0 |
| 20260504230158 | 85 | 45 | 1.0 | 2.0 | 0.00 | 0.00 | 0.00 | 70 | 1007.1 |
| 20260504225656 | 85 | 313 | 0.0 | 1.0 | 0.00 | 0.00 | 0.00 | 70 | 1007.0 |
| 20260504225156 | 85 | 232 | 2.0 | 3.0 | 0.00 | 0.00 | 0.00 | 70 | 1007.0 |
| 20260504224656 | 85 | 229 | 1.0 | 2.0 | 0.00 | 0.00 | 0.00 | 70 | 1006.9 |
| 20260504224156 | 85 | 211 | 2.0 | 4.0 | 0.00 | 0.00 | 0.00 | 70 | 1006.9 |
| 20260504223656 | 85 | 264 | 1.0 | 1.0 | 0.00 | 0.00 | 0.00 | 71 | 1006.9 |
| 20260504223158 | 85 | 224 | 1.0 | 3.0 | 0.00 | 0.00 | 0.00 | 71 | 1007.0 |
| 20260504222656 | 85 | 18 | 1.0 | 2.0 | 0.00 | 0.00 | 0.00 | 71 | 1007.0 |
| 20260504222158 | 85 | 166 | 1.0 | 2.0 | 0.00 | 0.00 | 0.00 | 71 | 1007.0 |
| 20260504221656 | 85 | 218 | 1.0 | 2.0 | 0.00 | 0.00 | 0.00 | 72 | 1007.1 |
| 20260504221156 | 85 | 213 | 1.0 | 3.0 | 0.00 | 0.00 | 0.00 | 72 | 1007.1 |
| 20260504220657 | 85 | 245 | 1.0 | 2.0 | 0.00 | 0.00 | 0.00 | 72 | 1007.1 |
| 20260504220158 | 85 | 221 | 2.0 | 3.0 | 0.00 | 0.00 | 0.00 | 72 | 1007.2 |
| 20260504215656 | 85 | 156 | 2.0 | 3.0 | 0.00 | 0.00 | 0.00 | 72 | 1007.3 |
| 20260504215156 | 85 | 206 | 2.0 | 4.0 | 0.00 | 0.00 | 0.00 | 72 | 1007.4 |
| 20260504214657 | 85 | 154 | 1.0 | 2.0 | 0.00 | 0.00 | 0.00 | 72 | 1007.4 |
| 20260504214156 | 85 | 29 | 1.0 | 2.0 | 0.00 | 0.00 | 0.00 | 72 | 1007.4 |
| 20260504213656 | 84 | 231 | 1.0 | 2.0 | 0.00 | 0.00 | 0.00 | 73 | 1007.5 |
| 20260504213156 | 84 | 202 | 1.0 | 2.0 | 0.00 | 0.00 | 0.00 | 73 | 1007.7 |
| 20260504212657 | 84 | 23 | 1.0 | 2.0 | 0.00 | 0.00 | 0.00 | 73 | 1007.7 |
| 20260504212157 | 84 | 45 | 1.0 | 2.0 | 0.00 | 0.00 | 0.00 | 73 | 1007.8 |
| 20260504211656 | 84 | 98 | 2.0 | 4.0 | 0.00 | 0.00 | 0.00 | 74 | 1007.9 |
| 20260504211157 | 84 | 265 | 1.0 | 3.0 | 0.00 | 0.00 | 0.00 | 74 | 1007.9 |
| 20260504210657 | 84 | 59 | 1.0 | 2.0 | 0.00 | 0.00 | 0.00 | 74 | 1007.9 |
| 20260504210157 | 85 | 103 | 2.0 | 3.0 | 0.00 | 0.00 | 0.00 | 74 | 1007.9 |
| 20260504205656 | 85 | 81 | 2.0 | 4.0 | 0.00 | 0.00 | 0.00 | 73 | 1007.8 |
| 20260504205159 | 85 | 45 | 2.0 | 3.0 | 0.00 | 0.00 | 0.00 | 72 | 1007.8 |
| 20260504204657 | 86 | 57 | 1.0 | 3.0 | 0.00 | 0.00 | 0.00 | 72 | 1007.7 |
| 20260504204157 | 86 | 30 | 2.0 | 5.0 | 0.00 | 0.00 | 0.00 | 72 | 1007.7 |
| 20260504203658 | 87 | 110 | 1.0 | 2.0 | 0.00 | 0.00 | 0.00 | 73 | 1007.6 |
| 20260504203156 | 87 | 65 | 1.0 | 2.0 | 0.00 | 0.00 | 0.00 | 74 | 1007.5 |
| 20260504202657 | 87 | 73 | 1.0 | 2.0 | 0.00 | 0.00 | 0.00 | 75 | 1007.5 |
| 20260504202157 | 87 | 226 | 1.0 | 2.0 | 0.00 | 0.00 | 0.00 | 75 | 1007.5 |
| 20260504201656 | 87 | 199 | 1.0 | 3.0 | 0.00 | 0.00 | 0.00 | 75 | 1007.4 |
| 20260504201157 | 87 | 240 | 1.0 | 2.0 | 0.00 | 0.00 | 0.00 | 75 | 1007.4 |
| 20260504200657 | 87 | 222 | 2.0 | 3.0 | 0.00 | 0.00 | 0.00 | 76 | 1007.3 |
| 20260504200157 | 87 | 193 | 2.0 | 5.0 | 0.00 | 0.00 | 0.00 | 76 | 1007.2 |
| 20260504195656 | 87 | 160 | 1.0 | 2.0 | 0.00 | 0.00 | 0.00 | 76 | 1007.2 |
| 20260504195157 | 87 | 162 | 1.0 | 3.0 | 0.00 | 0.00 | 0.00 | 76 | 1007.2 |
| 20260504194659 | 87 | 188 | 2.0 | 4.0 | 0.00 | 0.00 | 0.00 | 76 | 1007.3 |
| 20260504194157 | 87 | 217 | 2.0 | 5.0 | 0.00 | 0.00 | 0.00 | 76 | 1007.3 |
| 20260504193657 | 87 | 182 | 2.0 | 4.0 | 0.00 | 0.00 | 0.00 | 76 | 1007.3 |
| 20260504193156 | 87 | 226 | 1.0 | 3.0 | 0.00 | 0.00 | 0.00 | 76 | 1007.3 |
| 20260504192656 | 87 | 174 | 2.0 | 3.0 | 0.00 | 0.00 | 0.00 | 76 | 1007.3 |
| 20260504192156 | 87 | 179 | 1.0 | 2.0 | 0.00 | 0.00 | 0.00 | 76 | 1007.3 |
| 20260504191657 | 87 | 205 | 1.0 | 4.0 | 0.00 | 0.00 | 0.00 | 76 | 1007.3 |
| 20260504191157 | 87 | 171 | 1.0 | 2.0 | 0.00 | 0.00 | 0.00 | 76 | 1007.4 |
| 20260504190656 | 87 | 166 | 2.0 | 4.0 | 0.00 | 0.00 | 0.00 | 75 | 1007.4 |
| 20260504190157 | 87 | 105 | 1.0 | 3.0 | 0.00 | 0.00 | 0.00 | 75 | 1007.3 |
| 20260504185656 | 87 | 192 | 2.0 | 4.0 | 0.00 | 0.00 | 0.00 | 75 | 1007.4 |
| 20260504185157 | 87 | 185 | 2.0 | 4.0 | 0.00 | 0.00 | 0.00 | 74 | 1007.3 |
| 20260504184658 | 87 | 177 | 1.0 | 2.0 | 0.00 | 0.00 | 0.00 | 73 | 1007.5 |
| 20260504184156 | 87 | 115 | 1.0 | 2.0 | 0.00 | 0.00 | 0.00 | 72 | 1007.5 |
| 20260504183656 | 87 | 169 | 1.0 | 2.0 | 0.00 | 0.00 | 0.00 | 72 | 1007.6 |
| 20260504183157 | 87 | 237 | 2.0 | 4.0 | 0.00 | 0.00 | 0.00 | 72 | 1007.8 |
| 20260504182657 | 87 | 223 | 2.0 | 3.0 | 0.00 | 0.00 | 0.01 | 72 | 1007.8 |
| 20260504182158 | 87 | 262 | 2.0 | 2.0 | 0.00 | 0.00 | 0.01 | 72 | 1007.7 |
| 20260504181656 | 87 | 245 | 1.0 | 3.0 | 0.00 | 0.00 | 0.01 | 72 | 1007.8 |
| 20260504181157 | 88 | 315 | 2.0 | 5.0 | 0.00 | 0.00 | 0.01 | 72 | 1007.7 |
| 20260504180657 | 88 | 219 | 2.0 | 4.0 | 0.00 | 0.00 | 0.01 | 73 | 1007.7 |
| 20260504180158 | 88 | 186 | 2.0 | 3.0 | 0.00 | 0.00 | 0.01 | 74 | 1007.6 |
| 20260504175657 | 88 | 229 | 2.0 | 5.0 | 0.00 | 0.00 | 0.01 | 73 | 1007.6 |
| 20260504175158 | 88 | 218 | 3.0 | 5.0 | 0.00 | 0.00 | 0.01 | 73 | 1007.6 |
| 20260504174656 | 88 | 195 | 1.0 | 3.0 | 0.00 | 0.00 | 0.01 | 74 | 1007.7 |
| 20260504174157 | 88 | 201 | 2.0 | 2.0 | 0.00 | 0.00 | 0.01 | 74 | 1007.8 |
| 20260504173657 | 88 | 177 | 3.0 | 4.0 | 0.00 | 0.00 | 0.01 | 73 | 1007.8 |
| 20260504173157 | 88 | 214 | 3.0 | 4.0 | 0.00 | 0.00 | 0.01 | 73 | 1007.8 |
| 20260504172657 | 88 | 221 | 2.0 | 6.0 | 0.00 | 0.00 | 0.01 | 73 | 1007.9 |
| 20260504172157 | 88 | 195 | 2.0 | 4.0 | 0.00 | 0.00 | 0.01 | 73 | 1007.9 |
| 20260504171701 | 88 | 216 | 3.0 | 6.0 | 0.00 | 0.00 | 0.01 | 73 | 1008.0 |
| 20260504171157 | 88 | 195 | 3.0 | 6.0 | 0.00 | 0.00 | 0.01 | 73 | 1008.2 |
| 20260504170656 | 88 | 212 | 2.0 | 3.0 | 0.00 | 0.00 | 0.01 | 75 | 1008.1 |
| 20260504170157 | 87 | 194 | 2.0 | 3.0 | 0.00 | 0.00 | 0.01 | 76 | 1008.1 |
| 20260504160157 | 87 | 157 | 2.0 | 7.0 | 0.00 | 0.00 | 0.01 | 81 | 1007.5 |
| 20260504150657 | 88 | 123 | 3.0 | 6.0 | 0.00 | 0.00 | 0.01 | 78 | 1007.2 |
| 20260504150157 | 88 | 141 | 2.0 | 4.0 | 0.00 | 0.00 | 0.01 | 77 | 1007.2 |
| 20260504141157 | 88 | 160 | 3.0 | 5.0 | 0.00 | 0.00 | 0.01 | 75 | 1006.1 |
| 20260504140703 | 88 | 115 | 2.0 | 5.0 | 0.00 | 0.00 | 0.01 | 74 | 1006.0 |
| 20260504140156 | 88 | 135 | 2.0 | 4.0 | 0.00 | 0.00 | 0.01 | 73 | 1006.0 |
| 20260504130656 | 88 | 154 | 2.0 | 6.0 | 0.00 | 0.00 | 0.01 | 71 | 1005.0 |
| 20260504130157 | 88 | 76 | 2.0 | 3.0 | 0.00 | 0.00 | 0.01 | 70 | 1005.0 |
| 20260504120201 | 89 | 183 | 2.0 | 4.0 | 0.01 | 0.00 | 0.01 | 71 | 1004.4 |
| 20260504110657 | 95 | 138 | 3.0 | 6.0 | 0.00 | 0.00 | 0.00 | 58 | 1003.8 |
| 20260504110157 | 95 | 165 | 3.0 | 6.0 | 0.00 | 0.00 | 0.00 | 59 | 1003.8 |
| 20260504100158 | 97 | 208 | 2.0 | 3.0 | 0.00 | 0.00 | 0.00 | 56 | 1004.3 |
| 20260504081657 | 100 | 228 | 2.0 | 5.0 | 0.00 | 0.00 | 0.00 | 48 | 1005.1 |
| 20260504081157 | 101 | 211 | 3.0 | 7.0 | 0.00 | 0.00 | 0.00 | 46 | 1005.2 |
| 20260504080657 | 101 | 230 | 3.0 | 6.0 | 0.00 | 0.00 | 0.00 | 46 | 1005.4 |
| 20260504080157 | 101 | 0 | 1.0 | 2.0 | 0.00 | 0.00 | 0.00 | 47 | 1005.4 |
| 20260504070156 | 98 | 199 | 2.0 | 3.0 | 0.00 | 0.00 | 0.00 | 52 | 1006.6 |
| 20260504060159 | 95 | 218 | 2.0 | 4.0 | 0.00 | 0.00 | 0.00 | 58 | 1007.7 |
| 20260504050656 | 92 | 206 | 3.0 | 8.0 | 0.00 | 0.00 | 0.00 | 60 | 1008.3 |
| 20260504050156 | 92 | 192 | 4.0 | 7.0 | 0.00 | 0.00 | 0.00 | 60 | 1008.3 |
| 20260504045656 | 91 | 193 | 2.0 | 5.0 | 0.00 | 0.00 | 0.00 | 61 | 1008.3 |
| 20260504045157 | 91 | 198 | 4.0 | 7.0 | 0.00 | 0.00 | 0.00 | 60 | 1008.4 |
| 20260504044656 | 91 | 199 | 2.0 | 4.0 | 0.00 | 0.00 | 0.00 | 61 | 1008.3 |
| 20260504044156 | 90 | 220 | 3.0 | 7.0 | 0.00 | 0.00 | 0.00 | 62 | 1008.3 |
| 20260504043656 | 89 | 195 | 3.0 | 6.0 | 0.00 | 0.00 | 0.00 | 63 | 1008.4 |
| 20260504043156 | 89 | 146 | 3.0 | 6.0 | 0.00 | 0.00 | 0.00 | 65 | 1008.4 |
| 20260504042657 | 88 | 178 | 3.0 | 6.0 | 0.00 | 0.00 | 0.00 | 67 | 1008.5 |
| 20260504042157 | 88 | 224 | 2.0 | 4.0 | 0.00 | 0.00 | 0.00 | 70 | 1008.7 |
| 20260504041656 | 87 | 173 | 2.0 | 4.0 | 0.00 | 0.00 | 0.00 | 71 | 1008.7 |
| 20260504041158 | 87 | 157 | 3.0 | 4.0 | 0.00 | 0.00 | 0.00 | 72 | 1008.8 |
| 20260504040656 | 87 | 184 | 3.0 | 4.0 | 0.00 | 0.00 | 0.00 | 72 | 1008.8 |
| 20260504040156 | 87 | 152 | 3.0 | 6.0 | 0.00 | 0.00 | 0.00 | 71 | 1008.8 |
| 20260504035656 | 87 | 179 | 3.0 | 4.0 | 0.00 | 0.00 | 0.00 | 69 | 1008.8 |
| 20260504035156 | 87 | 163 | 3.0 | 4.0 | 0.00 | 0.00 | 0.00 | 70 | 1008.6 |
| 20260504034656 | 87 | 151 | 3.0 | 4.0 | 0.00 | 0.00 | 0.00 | 70 | 1008.7 |
| 20260504034156 | 87 | 169 | 4.0 | 5.0 | 0.00 | 0.00 | 0.00 | 70 | 1008.8 |
| 20260504033656 | 87 | 177 | 3.0 | 4.0 | 0.00 | 0.00 | 0.00 | 72 | 1008.9 |
| 20260504033157 | 87 | 136 | 2.0 | 3.0 | 0.00 | 0.00 | 0.00 | 73 | 1008.9 |
| 20260504032656 | 87 | 194 | 3.0 | 3.0 | 0.00 | 0.00 | 0.00 | 72 | 1008.7 |
| 20260504032159 | 87 | 158 | 4.0 | 4.0 | 0.00 | 0.00 | 0.00 | 73 | 1008.7 |
| 20260504031656 | 87 | 169 | 2.0 | 4.0 | 0.00 | 0.00 | 0.00 | 73 | 1008.7 |
| 20260504031156 | 87 | 156 | 2.0 | 3.0 | 0.00 | 0.00 | 0.00 | 74 | 1008.5 |
| 20260504030656 | 87 | 111 | 2.0 | 2.0 | 0.00 | 0.00 | 0.00 | 74 | 1008.4 |
| 20260504030156 | 86 | 167 | 3.0 | 3.0 | 0.00 | 0.00 | 0.00 | 73 | 1008.4 |
| 20260504025656 | 86 | 121 | 1.0 | 2.0 | 0.00 | 0.00 | 0.00 | 74 | 1008.3 |
| 20260504025156 | 86 | 135 | 3.0 | 4.0 | 0.00 | 0.00 | 0.00 | 75 | 1008.3 |
| 20260504024656 | 86 | 224 | 1.0 | 2.0 | 0.00 | 0.00 | 0.00 | 75 | 1008.3 |
| 20260504024156 | 86 | 161 | 3.0 | 4.0 | 0.00 | 0.00 | 0.00 | 75 | 1008.3 |
| 20260504023657 | 86 | 106 | 3.0 | 4.0 | 0.00 | 0.00 | 0.00 | 75 | 1008.2 |
| 20260504023156 | 86 | 134 | 1.0 | 2.0 | 0.00 | 0.00 | 0.00 | 75 | 1008.2 |
| 20260504022656 | 86 | 191 | 2.0 | 3.0 | 0.00 | 0.00 | 0.00 | 74 | 1007.9 |
| 20260504022157 | 86 | 94 | 2.0 | 2.0 | 0.00 | 0.00 | 0.00 | 73 | 1008.0 |
| 20260504021657 | 86 | 114 | 1.0 | 2.0 | 0.00 | 0.00 | 0.00 | 73 | 1007.8 |
| 20260504021156 | 85 | 143 | 1.0 | 2.0 | 0.00 | 0.00 | 0.00 | 74 | 1007.6 |
| 20260504020656 | 85 | 136 | 3.0 | 4.0 | 0.00 | 0.00 | 0.00 | 75 | 1007.5 |
| 20260504020158 | 85 | 7 | 2.0 | 2.0 | 0.00 | 0.00 | 0.00 | 75 | 1007.4 |
| 20260504015657 | 85 | 171 | 2.0 | 4.0 | 0.00 | 0.00 | 0.00 | 75 | 1007.4 |
| 20260504015156 | 85 | 194 | 2.0 | 3.0 | 0.00 | 0.00 | 0.00 | 74 | 1007.4 |
| 20260504014656 | 85 | 137 | 1.0 | 2.0 | 0.00 | 0.00 | 0.00 | 74 | 1007.2 |